Regional Weather Roundup
Issued by NWS Kansas City/Pleasant Hill, MO

Home | Current Version | Previous Version | Graphics & Text | Print | Product List | Glossary Off
Versions: 1 2 3 4 5 6 7 8 9 10 11 12 13 14 15 16 17 18 19 20 21 22 23 24 25 26 27

000
ASUS43 KEAX 201510
RWREAX

WEATHER ROUNDUP FOR EASTERN KANSAS AND NORTHWEST MISSOURI
NATIONAL WEATHER SERVICE KANSAS CITY/PLEASANT HILL MO
900 AM CST TUE FEB 20 2018

KSZ040-057-103>105-MOZ028-029-037-043-201600-
...KANSAS CITY METROPOLITAN AREA...

CITY           SKY/WX    TMP DP  RH WIND       PRES   REMARKS
K.C. INTL      SLEET     30  28  92 NW15G23   29.96R FOG     WCI  19
K.C. DOWNTOWN  FRZ RAIN  32  27  81 NE9       29.89F WCI  24
LEES SUMMIT    FRZ RAIN  30  30 100 N13       29.90F FOG     WCI  20
OLATHE - IXD   MIX PCPN  30  29  96 N12       29.94F WCI  20
OLATHE - OJC   CLOUDY    29  28  96 NW10      29.94R WCI  20
LAWRENCE       FRZ RAIN  31  29  92 NW13      29.99R FOG     WCI  21

$$

MOZ001>008-011>017-020>025-030>033-038>040-044>046-053-054-201600-
...NORTHERN AND CENTRAL MISSOURI...

CITY           SKY/WX    TMP DP  RH WIND       PRES   REMARKS
ST. JOSEPH     CLOUDY    28  27  96 NW21      29.99R FOG     WCI  15
MOSBY          LGT SNOW  32  30  93 N9        29.97R WCI  24
WARRENSBURG    MIX PCPN  32  32 100 NW20G26   29.98R WCI  20
WHITEMAN AFB   RAIN      34  32  93 NW24G33   29.91R WCI  21
CLINTON        LGT RAIN  34  34 100 NW14G25   29.96R WCI  24
SEDALIA        LGT RAIN  36  36 100 NW17      29.89R WCI  26
WARSAW         NOT AVBL
CHILLICOTHE      N/A     32  29  88 NW5G17    29.97R WCI  27
KIRKSVILLE     TSTM      33  33 100 NW9       29.90R FOG     WCI  25

$$

MOZ041-047>049-056>058-063>065-088>090-097-201600-
...EASTERN AND SOUTHERN MISSOURI...

CITY           SKY/WX    TMP DP  RH WIND       PRES   REMARKS
ST. LOUIS INTL LGT RAIN  66  61  84 S16G26    29.92R
SPIRIT OF STL  LGT RAIN  66  62  87 S14G23    29.92R
COLUMBIA       LGT RAIN  65  63  93 S14       29.83R
JEFFERSON CITY CLOUDY    69  60  73 S18G31    29.85R
ROLLA          PTSUNNY   65  60  84 S22G33    29.90S
OSAGE BEACH    CLOUDY    67  61  81 S13G18    29.86S
SPRINGFIELD    PTSUNNY   65  63  93 S20       29.86S
BRANSON        LGT RAIN  64  63  94 S8        29.95R
JOPLIN         CLOUDY    40  39  97 NW26G41   29.91R WCI  29
WEST PLAINS    LGT RAIN  64  61  90 S15G31    29.99R

$$

IAZ060-094-KSZ022-034>040-054-083-096-NEZ052-066-093-201600-
...KANSAS...SOUTHEAST NEBRASKA AND IOWA...

CITY           SKY/WX    TMP DP  RH WIND       PRES   REMARKS
TOPEKA         CLOUDY    27  25  92 NW18      29.98F WCI  14
MANHATTAN      CLOUDY    23  18  81 N8        30.05R WCI  14
EMPORIA        CLOUDY    25  22  88 NW15G28   29.99R FOG     WCI  13
CHANUTE        FRZ RAIN  32  31  96 N15G22    29.94R FOG     WCI  22
WICHITA        CLOUDY    21  19  92 N25G32    30.03R WCI   4
OMAHA          CLOUDY    17  11  77 NW20      30.07R WCI   1
LINCOLN        CLOUDY    14   7  73 NW17G28   30.10R WCI  -3
FALLS CITY     CLOUDY    22  18  85 NW17G26   30.02R WCI   8
LAMONI         FRZ RAIN  29  26  89 NW17      29.96R FOG     WCI  17
DES MOINES     CLOUDY    26  23  88 NW16      29.92F WCI  14

$$





USA.gov is the U.S. government's official web portal to all federal, state and local government web resources and services.